Total_Precipitation_Accumulation
0.16 0.23 0.30 0.32 0.27 0.21 0.18 0.21 0.34 0.32 0.36 0.45 0.54 0.54 0.63 0.68 0.62 0.62 0.56 0.55 0.55 0.57 0.61 0.65 0.68 0.66 0.63 0.59 0.66 0.76 0.84 0.93 1.05 1.03 1.00 0.96 0.90 0.83 0.86 0.91 0.88 1.00 1.12 1.16
0.15 0.18 0.22 0.25 0.25 0.18 0.14 0.12 0.15 0.27 0.44 0.47 0.49 0.53 0.55 0.56 0.59 0.61 0.67 0.71 0.72 0.71 0.74 0.66 0.63 0.59 0.54 0.52 0.56 0.69 0.79 0.83 0.91 0.98 0.90 0.82 0.80 0.74 0.74 0.80 0.87 0.95 0.96 1.04
0.24 0.21 0.26 0.31 0.25 0.19 0.14 0.12 0.14 0.30 0.55 0.51 0.50 0.54 0.59 0.66 0.73 0.63 0.61 0.64 0.70 0.68 0.67 0.56 0.54 0.53 0.53 0.56 0.56 0.61 0.71 0.84 0.93 0.98 0.93 0.82 0.75 0.79 0.79 0.84 0.89 0.92 0.89 0.90
0.34 0.40 0.55 0.37 0.23 0.20 0.21 0.20 0.20 0.25 0.34 0.41 0.51 0.53 0.48 0.53 0.66 0.67 0.64 0.67 0.67 0.63 0.60 0.56 0.54 0.54 0.52 0.50 0.52 0.56 0.61 0.70 0.83 0.92 0.89 0.87 0.85 0.87 0.92 0.98 1.00 0.99 0.91 0.91
0.47 0.55 0.48 0.40 0.33 0.31 0.35 0.36 0.32 0.40 0.38 0.41 0.47 0.49 0.51 0.43 0.46 0.47 0.59 0.60 0.63 0.64 0.69 0.71 0.64 0.67 0.68 0.62 0.64 0.71 0.75 0.80 0.77 0.85 0.94 0.98 0.98 0.97 1.02 1.07 1.07 1.08 1.03 1.02
0.59 0.73 0.74 0.62 0.50 0.44 0.46 0.74 0.55 0.54 0.56 0.57 0.57 0.68 0.75 0.53 0.39 0.41 0.51 0.55 0.62 0.61 0.57 0.64 0.67 0.79 0.85 0.86 0.84 0.90 0.98 1.05 1.06 1.10 1.14 1.12 1.22 1.31 1.34 1.33 1.25 1.25 1.23 1.22
0.76 0.88 0.90 0.71 0.59 0.53 0.89 1.04 0.65 0.63 0.69 0.67 0.70 0.78 0.73 0.61 0.49 0.54 0.48 0.48 0.56 0.66 0.63 0.64 0.70 0.82 0.96 1.04 1.01 1.06 1.13 1.22 1.32 1.41 1.53 1.62 1.75 1.71 1.66 1.65 1.63 1.53 1.42 1.37
1.09 1.22 1.12 0.72 0.69 0.93 1.11 0.88 0.89 0.79 0.73 0.68 0.64 0.69 0.73 0.68 0.61 0.53 0.53 0.51 0.56 0.68 0.67 0.69 0.76 0.86 0.96 1.06 1.16 1.29 1.38 1.50 1.59 1.72 1.76 1.86 2.20 2.24 2.26 2.18 1.94 1.76 1.69 1.58
1.16 1.21 0.95 0.81 0.95 1.00 0.99 1.01 1.05 1.00 0.81 0.73 0.65 0.64 0.69 0.62 0.52 0.44 0.43 0.47 0.52 0.67 0.75 0.74 0.81 1.01 1.20 1.21 1.29 1.45 1.56 1.71 1.83 1.90 2.01 2.15 2.31 2.34 2.35 2.29 2.06 1.87 1.87 1.82
1.18 1.23 1.05 0.92 0.89 0.97 0.96 0.93 0.96 0.94 1.00 1.00 0.85 0.73 0.74 0.66 0.55 0.48 0.45 0.47 0.51 0.63 0.77 0.93 1.02 1.18 1.36 1.36 1.44 1.56 1.66 1.74 1.84 1.94 2.05 2.20 2.35 2.29 2.22 2.15 2.08 2.00 1.98 1.97
1.35 1.29 1.17 1.05 1.02 1.17 1.15 1.04 1.07 1.02 1.05 1.11 0.92 0.75 0.66 0.63 0.62 0.61 0.61 0.62 0.62 0.70 0.86 1.07 1.23 1.34 1.39 1.42 1.56 1.71 1.73 1.80 1.89 1.92 1.94 2.04 2.12 2.21 2.09 2.01 1.97 1.99 2.01 2.06
1.41 1.30 1.40 1.28 1.08 1.17 1.26 1.13 1.20 1.17 1.09 0.91 0.83 0.78 0.70 0.67 0.66 0.66 0.67 0.68 0.70 0.78 0.89 1.05 1.22 1.39 1.49 1.59 1.68 1.79 1.83 1.78 1.85 1.93 1.99 2.03 2.01 1.89 1.80 1.73 1.64 1.60 1.66 1.71
1.09 1.06 1.20 1.16 1.12 1.21 1.35 1.23 1.05 1.00 1.00 0.89 0.77 0.72 0.67 0.63 0.60 0.61 0.63 0.65 0.71 0.80 0.88 0.97 1.08 1.27 1.47 1.70 1.86 1.95 2.01 2.03 2.01 2.08 2.17 2.17 2.13 2.05 1.95 1.79 1.59 1.45 1.36 1.33
0.93 0.90 0.99 1.04 1.18 1.16 1.19 1.14 0.92 0.85 0.83 0.79 0.73 0.71 0.66 0.59 0.52 0.51 0.58 0.64 0.69 0.78 0.89 0.96 1.07 1.20 1.37 1.60 1.79 1.93 1.99 2.07 2.07 2.07 2.11 2.10 2.07 2.05 2.04 1.94 1.81 1.61 1.38 1.25
1.01 0.92 0.97 1.01 1.06 1.08 1.07 0.99 0.93 0.84 0.72 0.67 0.64 0.67 0.70 0.65 0.58 0.55 0.54 0.56 0.62 0.72 0.85 1.00 1.13 1.20 1.30 1.41 1.51 1.66 1.78 1.88 1.95 1.93 1.92 1.96 1.96 1.93 1.93 1.90 1.81 1.65 1.43 1.31
1.11 1.07 1.03 1.01 0.99 0.97 0.94 0.91 0.88 0.81 0.70 0.72 0.71 0.63 0.63 0.65 0.63 0.59 0.56 0.57 0.67 0.74 0.85 1.04 1.12 1.21 1.42 1.53 1.59 1.67 1.77 1.85 1.88 1.83 1.71 1.67 1.67 1.69 1.65 1.67 1.66 1.55 1.42 1.28
1.21 1.22 1.13 1.08 0.99 1.02 1.04 1.01 0.92 0.82 0.73 0.72 0.75 0.68 0.60 0.55 0.59 0.57 0.56 0.56 0.61 0.69 0.81 0.99 1.05 1.08 1.28 1.53 1.65 1.66 1.63 1.60 1.62 1.62 1.56 1.47 1.48 1.55 1.58 1.60 1.54 1.44 1.31 1.18
1.17 1.13 1.07 1.05 1.04 1.07 1.02 0.94 0.88 0.83 0.76 0.71 0.70 0.68 0.64 0.60 0.60 0.60 0.58 0.59 0.61 0.62 0.67 0.77 0.89 0.98 1.08 1.28 1.45 1.54 1.55 1.49 1.42 1.39 1.38 1.31 1.25 1.30 1.37 1.38 1.30 1.20 1.12 0.99
1.00 0.94 0.93 0.96 0.99 1.05 1.02 0.90 0.83 0.81 0.77 0.71 0.70 0.71 0.66 0.61 0.58 0.59 0.58 0.64 0.74 0.81 0.74 0.73 0.86 0.89 0.99 1.13 1.28 1.31 1.38 1.43 1.36 1.20 1.16 1.23 1.16 1.14 1.10 1.06 1.01 0.95 0.88 0.83
0.95 0.90 0.91 1.01 1.04 1.09 1.15 1.02 0.87 0.84 0.80 0.74 0.71 0.70 0.68 0.65 0.63 0.63 0.66 0.72 0.81 0.89 0.84 0.78 0.73 0.72 0.86 1.06 1.18 1.14 1.14 1.21 1.19 1.09 1.06 1.09 1.06 1.03 0.92 0.88 0.85 0.83 0.82 0.80
0.99 0.95 0.94 0.97 1.03 1.05 1.03 0.95 0.85 0.82 0.75 0.68 0.66 0.68 0.67 0.63 0.60 0.68 0.82 0.88 0.79 0.81 0.80 0.79 0.72 0.70 0.73 0.91 1.00 1.01 1.00 1.02 1.04 1.00 0.99 1.00 0.98 0.94 0.87 0.87 0.84 0.81 0.75 0.71
0.94 0.94 0.91 0.89 0.89 0.89 0.84 0.77 0.67 0.63 0.56 0.51 0.52 0.56 0.62 0.60 0.56 0.60 0.67 0.78 0.82 0.85 0.78 0.75 0.71 0.69 0.67 0.76 0.81 0.91 0.97 0.91 0.87 0.83 0.83 0.83 0.86 0.85 0.77 0.75 0.71 0.64 0.61 0.60
0.73 0.69 0.70 0.70 0.69 0.69 0.63 0.59 0.55 0.54 0.50 0.49 0.52 0.60 0.70 0.68 0.65 0.74 0.72 0.64 0.70 0.72 0.68 0.67 0.67 0.65 0.59 0.61 0.72 0.80 0.89 0.89 0.87 0.78 0.74 0.72 0.70 0.68 0.65 0.61 0.57 0.55 0.57 0.56
0.55 0.53 0.55 0.51 0.51 0.57 0.60 0.56 0.50 0.46 0.44 0.45 0.45 0.53 0.73 0.84 0.79 0.73 0.70 0.67 0.61 0.54 0.51 0.52 0.48 0.47 0.50 0.52 0.62 0.70 0.79 0.82 0.82 0.75 0.69 0.65 0.59 0.59 0.62 0.61 0.54 0.50 0.51 0.49
0.50 0.46 0.48 0.51 0.55 0.64 0.65 0.57 0.49 0.45 0.49 0.50 0.47 0.53 0.70 0.85 0.91 0.81 0.68 0.59 0.54 0.47 0.46 0.44 0.41 0.44 0.46 0.50 0.59 0.69 0.77 0.78 0.78 0.73 0.65 0.59 0.54 0.53 0.57 0.57 0.52 0.47 0.44 0.42
0.55 0.53 0.57 0.59 0.63 0.71 0.70 0.66 0.65 0.64 0.66 0.70 0.69 0.72 0.77 0.77 0.79 0.77 0.68 0.57 0.50 0.50 0.49 0.48 0.45 0.44 0.48 0.56 0.61 0.67 0.73 0.74 0.72 0.68 0.58 0.55 0.50 0.52 0.57 0.55 0.50 0.48 0.43 0.38
0.59 0.58 0.62 0.68 0.75 0.78 0.74 0.75 0.80 0.85 0.90 0.97 1.02 0.94 0.91 0.86 0.80 0.71 0.62 0.52 0.46 0.46 0.48 0.46 0.43 0.42 0.47 0.57 0.64 0.68 0.69 0.69 0.64 0.59 0.58 0.55 0.52 0.54 0.57 0.54 0.50 0.45 0.39 0.36